Lid_Strength_Index
-1 -0 1 3 9 9 11 10 8 8 8 7 7 8 8 7 8 10 3 1 1 1 -0 -1 -1 -1 -1 -1 -1 -1 -1 -1 -1 -1 -1 -1 -1 -1 -1 -1 -1 -1 -1 -1 -1 -1 -1 -1 -1
1 1 2 5 10 12 12 9 8 7 7 7 7 7 8 8 5 4 3 1 1 0 -0 -0 -0 -1 -1 -1 -1 -1 -1 -2 -1 -1 -2 -1 -1 -1 -1 -1 -1 -1 -1 -1 -1 -1 -1 -1 -0
1 2 5 8 10 12 12 9 8 7 6 7 8 7 7 7 5 4 2 1 1 1 -0 -0 -0 -1 -1 -1 -1 -1 -1 -2 -2 -1 -1 -1 -1 -1 -1 -1 -1 -1 -1 -1 -1 -1 -1 -1 -1
2 4 6 10 10 10 10 8 7 7 7 7 7 8 6 4 4 2 1 1 1 1 0 -0 -1 -1 -1 -1 -1 -1 -1 -1 -2 -2 -1 -1 -2 -1 -1 -1 -1 -1 -1 -1 -1 -1 -1 -0 0
3 5 9 10 10 10 9 8 7 7 7 7 7 8 8 5 2 2 2 1 1 1 1 -0 -0 -1 -1 -1 -1 -1 -1 -1 -1 -2 -2 -2 -2 -1 -1 -1 -1 -1 -1 -1 -1 -1 -0 0 1
6 7 10 11 10 9 8 6 7 7 7 7 9 8 7 4 4 3 2 2 1 1 0 -0 1 0 -0 -1 -1 -1 -1 -1 -1 -1 -2 -2 -2 -2 -1 -1 -1 -1 -1 -1 -1 -0 0 1 1
7 8 10 10 10 9 8 7 9 8 8 8 7 9 7 6 4 3 3 2 2 1 0 1 0 0 1 0 0 -0 -1 -1 -1 -1 -1 -2 -2 -2 -1 -2 -1 -1 -1 -1 -1 -0 1 1 2
6 8 10 11 10 10 8 8 8 8 8 6 7 9 8 6 4 3 2 2 2 2 1 1 1 0 0 0 2 1 0 -0 -0 -0 -0 -0 -1 -1 -1 -1 -2 -1 -1 -1 -0 0 1 2 3
5 10 11 10 10 10 8 9 8 8 8 7 7 7 6 4 3 4 3 3 2 2 1 1 1 0 0 0 1 2 1 1 1 1 2 1 1 -0 -0 0 -2 -1 -1 -1 0 1 2 3 5
8 10 10 8 9 9 8 9 9 9 9 8 8 6 6 5 5 4 4 4 3 3 2 1 1 1 1 0 1 0 1 2 2 2 2 1 2 1 0 1 -1 -1 -1 -1 0 1 3 4 8
7 10 8 8 8 8 9 9 8 10 10 9 9 8 8 7 6 5 5 4 3 3 2 2 2 1 1 1 1 0 1 1 1 1 1 2 2 1 3 2 2 3 2 3 3 5 7 9 9
9 8 8 8 7 9 10 8 9 9 9 7 7 7 7 8 8 7 6 5 5 3 2 2 2 2 2 2 2 2 2 1 0 0 1 1 2 2 3 3 3 3 4 5 6 8 9 9 9
9 8 7 8 8 9 8 9 10 9 8 7 7 7 8 8 8 7 6 5 5 4 3 2 1 2 2 2 2 2 2 2 1 1 1 0 2 3 3 3 3 3 4 5 7 9 9 10 10
8 8 9 9 9 9 10 10 10 9 8 8 8 8 8 8 8 8 7 7 6 5 4 2 2 2 2 2 2 2 2 1 1 2 2 2 2 3 4 4 4 4 5 6 8 9 10 10 10
9 11 10 10 9 10 10 12 11 9 8 9 9 9 9 8 8 8 7 7 7 6 5 4 2 2 2 2 2 2 2 2 2 2 2 2 1 3 4 4 4 4 5 7 9 10 10 10 10
11 12 14 10 10 11 11 14 10 9 10 10 9 9 9 8 8 8 7 8 7 8 6 5 4 3 2 2 2 2 2 2 2 2 2 1 2 3 4 5 5 5 7 8 10 10 11 11 11
13 16 14 12 9 11 12 14 10 9 9 10 9 10 9 9 8 8 8 7 7 7 8 7 5 5 3 3 2 2 2 2 2 2 2 2 2 3 4 5 6 6 8 10 10 11 11 12 12
15 14 13 13 11 11 12 13 11 10 10 9 10 10 10 10 10 9 9 8 8 8 8 8 7 6 5 4 4 4 3 2 3 2 2 2 3 3 5 6 6 7 9 10 11 11 11 12 12
13 14 15 13 10 12 12 12 11 10 10 10 10 11 11 11 10 10 10 10 9 9 9 9 9 8 7 7 7 6 5 4 4 3 3 3 3 4 5 7 7 8 10 11 11 11 12 12 12
13 15 15 13 11 13 13 13 11 10 10 11 11 11 11 11 11 11 11 11 11 11 10 10 9 9 9 8 7 7 6 6 5 4 4 4 4 5 5 7 8 9 10 11 11 12 12 12 13
14 15 15 15 14 13 15 16 13 11 11 11 11 11 11 12 12 12 13 12 12 12 11 11 10 10 9 9 8 8 8 8 9 7 6 5 5 5 6 7 8 9 10 11 11 12 12 14 13
15 12 13 14 16 19 15 20 15 12 13 12 12 13 13 13 13 13 13 13 13 12 12 12 11 11 10 10 10 10 10 11 10 9 8 7 6 7 7 8 8 9 10 11 12 11 11 12 14
13 13 14 14 16 17 16 18 16 12 14 14 13 13 13 13 13 13 13 13 13 13 13 13 12 12 11 11 11 11 11 10 10 10 10 9 9 8 8 8 9 10 11 12 12 13 13 12 13
11 14 14 14 16 20 15 16 15 15 14 14 13 12 12 12 13 13 12 12 13 13 13 13 13 13 12 12 11 12 12 12 12 12 12 11 10 10 9 9 10 10 11 12 12 13 13 14 13
13 15 18 19 20 19 14 16 14 13 12 12 12 12 12 12 13 13 13 14 13 13 13 13 14 14 13 13 13 13 13 13 13 13 13 13 12 12 11 11 11 11 11 11 12 13 13 13 13
13 13 18 23 22 19 14 18 13 12 11 11 11 12 11 12 12 13 13 13 13 13 14 14 14 14 14 14 14 13 13 13 13 13 13 13 12 12 12 11 11 11 11 11 12 13 13 13 13
12 14 12 17 16 19 16 13 12 11 11 11 11 12 13 13 12 13 13 14 14 14 14 13 14 14 14 14 14 14 14 14 14 14 13 13 13 12 12 12 12 12 12 12 12 14 14 14 14
12 12 15 15 22 23 17 16 14 12 11 11 12 13 13 13 13 13 13 13 13 13 13 13 14 14 14 14 14 14 15 14 14 15 15 15 15 14 14 13 13 12 13 13 13 14 14 14 14
12 13 13 13 15 20 20 16 11 11 10 12 13 12 13 13 13 13 12 12 13 14 14 14 14 15 15 14 14 14 14 14 14 15 16 16 16 15 15 14 13 13 13 13 13 14 14 14 14
10 11 11 16 17 15 15 16 10 11 11 11 12 12 13 13 14 14 13 12 13 14 14 13 13 15 15 14 14 14 15 15 14 15 15 16 17 16 15 15 14 14 13 14 14 13 13 14 14